This is the latest recevied weather packets stored in our database for station/object KB0Y. If no packets are shown the sender has not sent any weather packets the latest 1 day(s).
| Time | Temp. | Humidity | Pressure | Rain* | Wind** | Luminosity | Snow |
|---|---|---|---|---|---|---|---|
| 1778012961 | 28.89° C | 54% | 1018.3 hPa | 0 mm | 3.13 m/s, 189° | 150 W/m² | - |
| 1778012658 | 28.89° C | 51% | 1018.3 hPa | 0 mm | 2.68 m/s, 189° | 591 W/m² | - |
| 1778012355 | 28.33° C | 51% | 1018.6 hPa | 0 mm | 3.13 m/s, 189° | 629 W/m² | - |
| 1778012052 | 28.33° C | 52% | 1018.3 hPa | 0 mm | 4.47 m/s, 189° | 603 W/m² | - |
| 1778011750 | 28.89° C | 53% | 1018.6 hPa | 0 mm | 3.13 m/s, 189° | 260 W/m² | - |
| 1778011447 | 28.89° C | 55% | 1018.6 hPa | 0 mm | 0 m/s | 621 W/m² | - |
| 1778011142 | 28.89° C | 54% | 1018.9 hPa | 0 mm | 1.79 m/s, 229° | 599 W/m² | - |
| 1778010840 | 29.44° C | 54% | 1018.9 hPa | 0 mm | 2.24 m/s, 189° | 134 W/m² | - |
| 1778010537 | 29.44° C | 51% | 1018.9 hPa | 0 mm | 3.13 m/s, 189° | 146 W/m² | - |
| 1778010234 | 29.44° C | 51% | 1018.9 hPa | 0 mm | 3.13 m/s, 189° | 624 W/m² | - |
| 1778009929 | 30° C | 51% | 1018.9 hPa | 0 mm | 3.13 m/s, 192° | 614 W/m² | - |
| 1778009627 | 29.44° C | 51% | 1019.3 hPa | 0 mm | 0.89 m/s, 218° | 627 W/m² | - |
| 1778009324 | 29.44° C | 51% | 1019.3 hPa | 0 mm | 2.24 m/s, 278° | 641 W/m² | - |
| 1778009023 | 28.89° C | 53% | 1019.3 hPa | 0 mm | 2.24 m/s, 191° | 634 W/m² | - |
| 1778008720 | 28.89° C | 51% | 1019.3 hPa | 0 mm | 1.34 m/s, 190° | 611 W/m² | - |
| 1778008418 | 28.89° C | 52% | 1019.3 hPa | 0 mm | 1.79 m/s, 333° | 635 W/m² | - |
| 1778008115 | 28.89° C | 51% | 1019.3 hPa | 0 mm | 1.79 m/s, 328° | 643 W/m² | - |
| 1778007810 | 28.33° C | 54% | 1019.3 hPa | 0 mm | 3.58 m/s, 189° | 649 W/m² | - |
| 1778007506 | 28.33° C | 55% | 1019.6 hPa | 0 mm | 3.13 m/s, 263° | 653 W/m² | - |
| 1778007203 | 28.33° C | 53% | 1019.3 hPa | 0 mm | 2.24 m/s, 192° | 187 W/m² | - |
| 1778006899 | 28.33° C | 53% | 1019.3 hPa | 0 mm | 3.58 m/s, 189° | 595 W/m² | - |
| 1778006596 | 27.78° C | 53% | 1019.6 hPa | 0 mm | 2.68 m/s, 191° | 659 W/m² | - |
| 1778006293 | 27.78° C | 56% | 1019.3 hPa | 0 mm | 2.68 m/s, 189° | 595 W/m² | - |
| 1778005990 | 27.78° C | 57% | 1019.6 hPa | 0 mm | 1.34 m/s, 189° | 627 W/m² | - |
| 1778005687 | 27.78° C | 57% | 1019.6 hPa | 0 mm | 1.79 m/s, 188° | 210 W/m² | - |
* Rain latest hour (hover to see other rain measurements)
** Current wind speed in m/s (hover to see current wind gust speed)